sat.trackr.live / text

‹ back to catalog

FORESAIL-1 PRIME

NORAD 66778 · 2025-276DS

PAYLOAD ACTIVE UNKNOWN

§ Identity

Operator
Country
FIN
Launch date
2025-11-28
Launch site
AFWTR
Launch vehicle
Mass (kg)
RCS (m²)

Purposes: tech_demo

External: N2YO · Heavens-Above · Gunter

§ Orbital elements

Epoch: 2026-09-19T22:02:36.608064Z

Period
94.78 min
Inclination
97.4116°
Eccentricity
0.0003583
Mean motion
15.19377039 rev/d
Perigee alt
505.3 km
Apogee alt
510.2 km
Semi-major
6,885.9 km
B*
1.3162e-4
RAAN
334.4563°
Arg perigee
119.6315°
Mean anomaly
240.5277°
Rev number
4,478

§ Raw data

FORESAIL-1 PRIME1 66778U 25276DS  26262.91847926  .00002716  00000+0  13162-3 0  99912 66778  97.4116 334.4563 0003583 119.6315 240.5277 15.19377039 44782

JSON: /api/v1/satellites/66778 · /tle

For live sub-satellite position, see the globe view (requires WebGL).

§ Visibility from observer

Set your observer location to see the next 7 days of passes ≥ 10°. The values pass through the URL so the page stays shareable.

No JS? Fill the form by hand. The geolocation button needs JavaScript.

§ Radio — SatNOGS DB

ModeDescriptionDownlinkUplink
GMSK MODE U - GMSK 9k6 TLM Skylink 437.125 MHz
GMSK Mode U/U - GMSK9k6 - Digipeater - Skylink 437.125 MHz 437.125 MHz

2 transmitters · refreshed weekly from db.satnogs.org